This demonstration page uses our WeatherBlox Daily Observations layout. Learn more.

Left ArrowRight Arrow

Hourly Observations for March 31, 2017

Temp ( °F °C ) Dew Point ( °F °C ) Humidity (%) Winds ( mph kmh ) Pressure ( in mb ) Visibility ( mi km ) Precip ( " mm )
12:52 am 00:52 Cloudy 46 7.8 44 6.7 93 93 W 12 19 29.76 1008 8 13 0.00 0.00
1:52 am 01:52 Cloudy 46 7.8 44 6.7 93 93 WNW 12 19 29.77 1008 10 16 0.00 0.00
2:52 am 02:52 Cloudy with Mist and Fog 46 7.8 44 6.7 93 93 WNW 9 15 29.78 1008 5 8 0.00 0.00
3:52 am 03:52 Cloudy 46 7.8 44 6.7 93 93 NW 9 15 29.79 1009 8 13 0.00 0.00
4:01 am 04:01 Cloudy 46 7.8 44 6.7 93 93 WNW 7 11 29.83 1010 8 13 0.00 0.00
4:07 am 04:07 Cloudy 46 7.8 44 6.7 93 93 NW 7 11 29.80 1009 10 16 0.00 0.00
4:52 am 04:52 Cloudy 46 7.8 44 6.7 93 93 WNW 6 9 29.78 1009 10 16 0.00 0.00
5:26 am 05:26 Cloudy 46 8 45 7 93 93 NNW 7 11 29.77 1008 10 16 0.00 0.00
5:52 am 05:52 Cloudy 46 7.8 44 6.7 93 93 NNW 7 11 29.80 1009 8 13 0.00 0.00
6:52 am 06:52 Cloudy 46 7.8 43 6.1 89 89 NW 7 11 29.83 1010 10 16 0.00 0.00
7:29 am 07:29 Cloudy with Mist and Fog 45 7.2 44 6.7 97 97 NNW 7 11 29.85 1011 2 3 0.00 0.00
7:36 am 07:36 Cloudy with Mist and Fog 45 7 45 7 100 100 NW 5 7 29.88 1012 2 3 0.00 0.00
7:52 am 07:52 Cloudy with Mist and Fog 45 7.2 44 6.7 97 97 NW 3 6 29.87 1012 2 3 0.00 0.00
8:23 am 08:23 Cloudy with Light Rain 45 7.2 44 6.7 97 97 NW 7 11 29.91 1013 2 3 0.01 0.25
8:38 am 08:38 Cloudy with Mist and Fog 45 7 45 7 100 100 NW 7 11 29.91 1013 3 5 0.00 0.00
8:52 am 08:52 Cloudy with Mist and Fog 46 7.8 44 6.7 93 93 WNW 6 9 29.90 1013 4 6 0.01 0.25
9:06 am 09:06 Cloudy 46 8 45 7 93 93 WNW 7 11 29.91 1013 8 13 0.00 0.00
9:24 am 09:24 Cloudy 46 8 45 7 93 93 WNW 6 9 29.94 1014 7 11 0.00 0.00
9:33 am 09:33 Cloudy 47 8.3 45 7.2 93 93 NW 6 9 29.94 1014 9 14 0.00 0.00
9:44 am 09:44 Cloudy 46 8 45 7 93 93 NNW 7 11 29.94 1014 10 16 0.00 0.00
9:52 am 09:52 Cloudy 48 8.9 45 7.2 89 89 NW 8 13 29.91 1013 10 16 0.00 0.00
10:22 am 10:22 Cloudy 48 9 45 7 87 87 N 6 9 29.94 1014 10 16 0.00 0.00
10:52 am 10:52 Cloudy 49 9.4 44 6.7 83 83 NW 5 7 29.94 1014 10 16 0.00 0.00
11:32 am 11:32 Cloudy 52 11 46 8 82 82 NNW 7 11 29.94 1014 10 16 0.00 0.00
11:52 am 11:52 Cloudy 51 10.6 45 7.2 80 80 WNW 6 9 29.93 1014 10 16 0.00 0.00
12:52 pm 12:52 Cloudy 52 11.1 44 6.7 75 75 NW 3 6 29.93 1014 10 16 0.00 0.00
1:52 pm 13:52 Cloudy 52 11.1 44 6.7 75 75 NNW 9 15 29.95 1014 10 16 0.00 0.00
2:52 pm 14:52 Cloudy 54 12.2 44 6.7 69 69 N 10 17 29.93 1014 10 16 0.00 0.00
3:52 pm 15:52 Cloudy 53 11.7 45 7.2 74 74 NE 10 17 29.93 1014 10 16 0.00 0.00
4:52 pm 16:52 Cloudy 52 11.1 44 6.7 75 75 N 7 11 29.93 1014 10 16 0.00 0.00
5:52 pm 17:52 Cloudy 52 11.1 44 6.7 75 75 NNE 9 15 29.94 1014 10 16 0.00 0.00
6:52 pm 18:52 Cloudy 50 10 43 6.1 77 77 NE 10 17 29.96 1015 10 16 0.00 0.00
7:52 pm 19:52 Cloudy 50 10 43 6.1 77 77 NE 10 17 29.98 1015 10 16 0.00 0.00
8:52 pm 20:52 Cloudy 49 9.4 42 5.6 77 77 NE 8 13 29.99 1016 10 16 0.00 0.00
9:26 pm 21:26 Cloudy 49 9.4 42 5.6 77 77 ENE 9 15 30.03 1017 10 16 0.00 0.00
9:52 pm 21:52 Cloudy 49 9.4 42 5.6 77 77 ENE 8 13 30.01 1016 10 16 0.00 0.00
10:52 pm 22:52 Cloudy 49 9.4 42 5.6 77 77 ENE 9 15 30.02 1017 10 16 0.00 0.00
11:52 pm 23:52 Cloudy 48 8.9 42 5.6 80 80 ENE 12 19 30.03 1017 10 16 0.00 0.00

Powered by AerisWeather